ROBUSTA 1B (42792 NORAD) Tracking and Keplerian Element Data

This shows tracking and keplerian element data for the satellite.

Feedback or suggestion? Click here.




ElementValue
Catalog42792
NameROBUSTA 1B
Epoch Orbit30111
Epoch Day325.1092685
Epoch Year2022
RAAN4.2617
Inclination97.1809
Eccentricity0.000971
Argument of Perigee115.9919
Mean Anonmoly244.2326
Mean Motion15.35246795
Decay Rate0.0001555
L11 42792U 17036AD 22325.10926850 .00015550 00000+0 45562-3 0 9996
L22 42792 97.1809 4.2617 0009710 115.9919 244.2326 15.35246795301118



Live tracking and technical data element details for ROBUSTA 1B (NORAD 42792). ROBUSTA 1B can be tracked NOW for your location showing map with azimuth and elevation plus other details from your city location.







IsCatalogInMostPopularTable: catalog: 42792, numindb: 496
Update: records affected: 1



GetName: 42792 ROBUSTA 1B

Hit Count: updated at: Mon, 28 Nov 2022 04:57:52 GMT